contact:dominique.lefevre@mio.osupytheas.fr, maurice.libes@osupytheas.fr, didier.mallarino@osupytheas.fr
Project:EMSO http://www.emso-fr.org/EMSO-France
Depth: 2436.0 m
Title:EMSO Ligure Ouest : Data MII capteur AQUADOPP
Date,Latitude,Longitude,X_East,Y_North,Z_Up,Amplitude_X,Amplitude_Y,Amplitude_Z,Batterie,SoundSpeed,Heading,Pitch,Roll,Pressure,TIS,Speed,Direction
, degrees North, degrees East, m.s-1, m.s-1,m.s-1, 1, 1, 1, Volt, m.s-1, degree, degree, degree, dbar, degree_C, m.s-1, degree
2020-08-17T00:04:03,42.805,6.029,0.035,0.0,0.009,103.0,109.0,101.0,13.4,1505.2,325.5,-0.7,1.8,2470.353,13.3,0.035,90.0
2020-08-17T00:07:03,42.805,6.029,0.031,-0.017,-0.026,105.0,111.0,101.0,13.3,1505.3,324.2,-0.7,1.8,2470.357,13.31,0.035,118.7
2020-08-17T00:10:03,42.805,6.029,0.033,-0.013,0.004,103.0,111.0,102.0,13.4,1505.3,324.6,-0.7,1.8,2470.37,13.31,0.035,111.5
2020-08-17T00:13:03,42.805,6.029,0.035,-0.022,-0.016,104.0,110.0,102.0,13.4,1505.3,324.7,-0.7,1.8,2470.355,13.32,0.041,122.2
2020-08-17T00:16:03,42.805,6.029,0.057,-0.011,0.008,105.0,108.0,102.0,13.3,1505.3,325.3,-0.7,1.9,2470.331,13.32,0.058,100.9
2020-08-17T00:19:03,42.805,6.029,0.036,-0.005,-0.018,103.0,110.0,102.0,13.4,1505.3,327.5,-0.7,1.8,2470.309,13.32,0.036,97.9
2020-08-17T00:22:03,42.805,6.029,0.023,-0.008,-0.038,104.0,111.0,101.0,13.4,1505.3,327.8,-0.6,1.9,2470.392,13.32,0.024,109.2
2020-08-17T00:25:03,42.805,6.029,0.016,-0.023,-0.042,103.0,110.0,101.0,13.3,1505.3,327.7,-0.7,1.8,2470.378,13.32,0.028,145.2
2020-08-17T00:28:03,42.805,6.029,0.04,0.016,-0.007,104.0,109.0,100.0,13.4,1505.3,327.4,-0.7,1.8,2470.322,13.32,0.043,68.2
2020-08-17T00:31:03,42.805,6.029,0.026,-0.006,-0.005,105.0,110.0,100.0,13.4,1505.3,327.7,-0.7,1.8,2470.34,13.32,0.026,103.0
2020-08-17T00:34:03,42.805,6.029,0.039,0.008,-0.054,105.0,108.0,101.0,13.4,1505.3,324.0,-0.7,1.8,2470.338,13.32,0.039,78.4
2020-08-17T00:37:03,42.805,6.029,0.043,0.0,-0.037,104.0,109.0,101.0,13.3,1505.3,327.0,-0.7,1.9,2470.309,13.32,0.043,90.0
2020-08-17T00:40:03,42.805,6.029,0.035,0.008,-0.039,103.0,111.0,102.0,13.4,1505.3,323.2,-0.7,1.9,2470.362,13.32,0.035,77.1
2020-08-17T00:43:03,42.805,6.029,0.039,-0.013,-0.009,104.0,109.0,102.0,13.4,1505.3,328.3,-0.7,1.8,2470.315,13.32,0.041,108.4
2020-08-17T00:46:03,42.805,6.029,0.047,-0.015,-0.022,104.0,111.0,101.0,13.4,1505.3,325.3,-0.7,1.8,2470.308,13.32,0.049,107.7
2020-08-17T00:52:03,42.805,6.029,0.056,-0.017,-0.024,104.0,109.0,102.0,13.4,1505.2,326.4,-0.7,1.8,2470.371,13.3,0.058,106.9
2020-08-17T00:55:03,42.805,6.029,0.059,0.007,-0.019,105.0,109.0,103.0,13.3,1505.3,325.3,-0.7,1.8,2470.347,13.31,0.059,83.2
2020-08-17T00:58:03,42.805,6.029,0.038,0.006,-0.012,104.0,107.0,102.0,13.4,1505.3,325.0,-0.7,1.8,2470.361,13.31,0.038,81.0
2020-08-17T01:04:03,42.805,6.029,0.028,0.001,0.013,104.0,111.0,102.0,13.4,1505.2,326.5,-0.7,1.9,2470.37,13.3,0.028,88.0
2020-08-17T01:07:02,42.805,6.029,0.029,-0.014,-0.044,104.0,110.0,100.0,13.4,1505.3,326.5,-0.7,1.8,2470.341,13.31,0.032,115.8
2020-08-17T01:10:03,42.805,6.029,0.044,-0.005,-0.005,104.0,109.0,102.0,13.4,1505.3,325.6,-0.7,1.8,2470.346,13.31,0.044,96.5
2020-08-17T01:13:03,42.805,6.029,0.027,0.011,-0.023,105.0,110.0,101.0,13.4,1505.3,326.7,-0.7,1.9,2470.373,13.32,0.029,67.8
2020-08-17T01:16:03,42.805,6.029,0.03,-0.012,-0.039,105.0,109.0,101.0,13.3,1505.3,324.5,-0.7,1.9,2470.371,13.32,0.032,111.8
2020-08-17T01:19:03,42.805,6.029,0.014,-0.003,-0.016,103.0,111.0,101.0,13.3,1505.3,325.4,-0.7,1.8,2470.342,13.32,0.014,102.1
2020-08-17T01:22:03,42.805,6.029,0.028,0.003,-0.01,104.0,110.0,101.0,13.4,1505.3,324.1,-0.7,1.8,2470.373,13.32,0.028,83.9
2020-08-17T01:25:03,42.805,6.029,0.045,-0.007,-0.004,104.0,111.0,102.0,13.3,1505.3,326.7,-0.7,1.8,2470.312,13.32,0.045,98.8
2020-08-17T01:28:03,42.805,6.029,0.023,-0.004,-0.03,104.0,111.0,101.0,13.4,1505.3,328.1,-0.7,1.8,2470.366,13.32,0.023,99.9
2020-08-17T01:31:03,42.805,6.029,0.024,-0.008,-0.027,104.0,110.0,102.0,13.3,1505.3,324.3,-0.7,1.8,2470.341,13.32,0.025,108.4
2020-08-17T01:34:03,42.805,6.029,0.062,-0.003,-0.007,104.0,107.0,101.0,13.3,1505.3,326.9,-0.7,1.8,2470.36,13.32,0.062,92.8
2020-08-17T01:37:03,42.805,6.029,0.041,-0.009,-0.007,103.0,107.0,102.0,13.3,1505.3,327.6,-0.7,1.8,2470.3,13.32,0.041,102.4
2020-08-17T01:40:03,42.805,6.029,0.024,-0.007,-0.04,104.0,111.0,102.0,13.3,1505.3,324.8,-0.7,1.8,2470.327,13.32,0.025,106.3
2020-08-17T01:43:03,42.805,6.029,0.028,0.007,-0.026,103.0,109.0,103.0,13.3,1505.3,327.1,-0.7,1.8,2470.326,13.32,0.028,76.0
2020-08-17T01:46:03,42.805,6.029,0.057,0.006,0.001,103.0,110.0,102.0,13.4,1505.3,322.7,-0.7,1.8,2470.363,13.32,0.057,84.0
2020-08-17T01:49:03,42.805,6.029,0.032,-0.011,-0.009,105.0,113.0,100.0,13.4,1505.3,326.8,-0.7,1.9,2470.334,13.32,0.033,109.0
2020-08-17T01:52:03,42.805,6.029,0.042,-0.004,-0.015,102.0,111.0,103.0,13.4,1505.3,325.1,-0.7,1.8,2470.325,13.32,0.042,95.4
2020-08-17T01:55:03,42.805,6.029,0.043,0.014,-0.052,104.0,111.0,101.0,13.3,1505.3,323.8,-0.7,1.8,2470.299,13.32,0.045,72.0
2020-08-17T01:58:03,42.805,6.029,0.034,0.0,-0.004,105.0,112.0,101.0,13.4,1505.3,324.7,-0.7,1.8,2470.309,13.32,0.034,90.0
2020-08-17T02:04:03,42.805,6.029,0.054,-0.026,-0.032,104.0,111.0,102.0,13.4,1505.2,326.8,-0.8,1.8,2470.377,13.3,0.059,115.7
2020-08-17T02:07:03,42.805,6.029,0.054,0.0,-0.002,102.0,112.0,102.0,13.4,1505.3,324.5,-0.7,1.8,2470.377,13.31,0.053,90.0
2020-08-17T02:10:03,42.805,6.029,0.026,0.004,0.0,104.0,112.0,101.0,13.3,1505.3,323.3,-0.7,1.8,2470.339,13.31,0.026,81.3
2020-08-17T02:13:03,42.805,6.029,0.015,-0.007,-0.03,103.0,113.0,102.0,13.4,1505.3,324.8,-0.7,1.8,2470.381,13.32,0.016,115.0
2020-08-17T02:16:03,42.805,6.029,0.026,0.012,0.002,104.0,109.0,100.0,13.4,1505.3,327.7,-0.7,1.8,2470.37,13.32,0.028,65.2
2020-08-17T02:19:03,42.805,6.029,0.03,0.001,-0.002,103.0,110.0,101.0,13.4,1505.3,324.4,-0.7,1.8,2470.357,13.32,0.03,88.1
2020-08-17T02:22:03,42.805,6.029,0.032,0.001,-0.02,105.0,112.0,102.0,13.4,1505.3,326.4,-0.7,1.8,2470.362,13.32,0.032,88.2
2020-08-17T02:25:03,42.805,6.029,0.024,0.0,-0.015,105.0,113.0,101.0,13.4,1505.3,326.1,-0.7,1.8,2470.348,13.32,0.024,90.0
2020-08-17T02:28:03,42.805,6.029,0.029,0.002,-0.018,105.0,112.0,101.0,13.3,1505.3,324.6,-0.7,1.8,2470.336,13.32,0.029,86.1
2020-08-17T02:31:03,42.805,6.029,0.035,-0.004,-0.008,103.0,111.0,100.0,13.3,1505.3,325.0,-0.7,1.8,2470.374,13.32,0.035,96.5
2020-08-17T02:34:03,42.805,6.029,0.038,0.004,-0.021,104.0,111.0,102.0,13.3,1505.3,326.4,-0.7,1.8,2470.331,13.32,0.038,84.0
2020-08-17T02:37:03,42.805,6.029,0.057,-0.014,-0.017,103.0,111.0,102.0,13.4,1505.3,326.7,-0.7,1.8,2470.363,13.32,0.058,103.8
2020-08-17T02:40:03,42.805,6.029,0.044,-0.001,-0.019,104.0,110.0,101.0,13.3,1505.3,323.3,-0.7,1.8,2470.334,13.32,0.044,91.3
2020-08-17T02:43:03,42.805,6.029,0.042,-0.007,-0.025,104.0,111.0,101.0,13.3,1505.3,324.1,-0.7,1.8,2470.387,13.32,0.042,99.5
2020-08-17T02:46:03,42.805,6.029,0.032,-0.002,-0.017,104.0,110.0,101.0,13.4,1505.3,323.7,-0.7,1.8,2470.345,13.32,0.032,93.6
2020-08-17T02:49:03,42.805,6.029,0.048,0.002,-0.039,103.0,112.0,102.0,13.4,1505.3,322.8,-0.7,1.8,2470.363,13.32,0.048,87.6
2020-08-17T02:52:03,42.805,6.029,0.037,-0.011,-0.022,104.0,112.0,102.0,13.3,1505.3,327.8,-0.7,1.8,2470.34,13.32,0.038,106.6
2020-08-17T02:55:03,42.805,6.029,0.042,0.005,-0.023,104.0,110.0,101.0,13.3,1505.3,326.9,-0.7,1.8,2470.347,13.32,0.042,83.2
2020-08-17T02:58:03,42.805,6.029,0.017,0.014,-0.024,104.0,112.0,101.0,13.3,1505.3,328.6,-0.7,1.8,2470.376,13.32,0.022,50.5
2020-08-17T03:04:03,42.805,6.029,0.059,-0.001,-0.007,104.0,112.0,102.0,13.3,1505.2,324.0,-0.7,1.8,2470.435,13.3,0.059,91.0
2020-08-17T03:07:03,42.805,6.029,0.032,-0.002,0.016,104.0,112.0,102.0,13.3,1505.3,324.6,-0.7,1.9,2470.427,13.31,0.032,93.6
2020-08-17T03:10:03,42.805,6.029,0.04,-0.003,-0.018,104.0,114.0,102.0,13.4,1505.3,326.4,-0.7,1.8,2470.399,13.31,0.04,94.3
2020-08-17T03:13:03,42.805,6.029,0.036,0.016,-0.007,104.0,110.0,102.0,13.4,1505.3,324.6,-0.7,1.8,2470.368,13.32,0.039,66.0
2020-08-17T03:16:03,42.805,6.029,0.028,-0.009,-0.02,103.0,114.0,101.0,13.3,1505.3,328.0,-0.7,1.8,2470.391,13.32,0.029,107.8
2020-08-17T03:19:03,42.805,6.029,0.051,-0.015,-0.019,104.0,110.0,102.0,13.3,1505.3,324.7,-0.7,1.8,2470.384,13.32,0.053,106.4
2020-08-17T03:22:03,42.805,6.029,0.052,-0.015,-0.011,102.0,110.0,102.0,13.3,1505.3,323.2,-0.7,1.8,2470.393,13.32,0.054,106.1
2020-08-17T03:25:03,42.805,6.029,0.054,-0.024,-0.027,103.0,110.0,103.0,13.3,1505.3,326.4,-0.7,1.8,2470.339,13.32,0.059,114.0
2020-08-17T03:28:03,42.805,6.029,0.034,0.019,-0.024,104.0,112.0,102.0,13.4,1505.3,327.9,-0.7,1.8,2470.387,13.32,0.038,60.8
2020-08-17T03:31:03,42.805,6.029,0.031,0.0,0.005,103.0,114.0,102.0,13.4,1505.3,327.0,-0.7,1.8,2470.404,13.32,0.03,90.0
2020-08-17T03:34:03,42.805,6.029,0.038,0.008,0.012,103.0,113.0,101.0,13.4,1505.3,324.4,-0.7,1.8,2470.376,13.32,0.038,78.1
2020-08-17T03:37:03,42.805,6.029,0.034,0.009,0.004,104.0,112.0,102.0,13.3,1505.3,326.4,-0.7,1.8,2470.369,13.32,0.035,75.2
2020-08-17T03:40:03,42.805,6.029,0.022,0.006,-0.025,104.0,114.0,101.0,13.4,1505.3,323.5,-0.7,1.8,2470.379,13.32,0.022,74.7
2020-08-17T03:43:03,42.805,6.029,0.048,0.003,-0.014,102.0,115.0,103.0,13.4,1505.3,324.8,-0.7,1.8,2470.39,13.32,0.048,86.4
2020-08-17T03:46:03,42.805,6.029,0.035,0.012,-0.019,104.0,112.0,101.0,13.4,1505.3,324.2,-0.7,1.8,2470.394,13.32,0.037,71.1
2020-08-17T03:49:03,42.805,6.029,0.048,-0.004,-0.023,103.0,110.0,101.0,13.4,1505.3,326.3,-0.7,1.8,2470.407,13.32,0.048,94.8
2020-08-17T03:52:03,42.805,6.029,0.037,0.0,-0.009,103.0,113.0,102.0,13.4,1505.3,325.6,-0.7,1.8,2470.409,13.32,0.037,90.0
2020-08-17T03:55:03,42.805,6.029,0.023,0.014,-0.02,105.0,114.0,102.0,13.4,1505.3,326.0,-0.7,1.8,2470.388,13.32,0.026,58.7
2020-08-17T03:58:03,42.805,6.029,0.017,-0.002,-0.021,104.0,112.0,102.0,13.4,1505.3,326.1,-0.7,1.8,2470.401,13.32,0.017,96.7
2020-08-17T04:04:03,42.805,6.029,0.034,0.012,-0.011,103.0,112.0,102.0,13.4,1505.2,323.9,-0.7,1.8,2470.441,13.3,0.036,70.6
2020-08-17T04:07:03,42.805,6.029,0.02,0.006,-0.013,105.0,111.0,101.0,13.4,1505.3,323.3,-0.7,1.8,2470.399,13.31,0.02,73.3
2020-08-17T04:10:03,42.805,6.029,0.054,0.011,-0.013,104.0,114.0,103.0,13.4,1505.3,328.1,-0.7,1.8,2470.415,13.31,0.055,78.5
2020-08-17T04:13:03,42.805,6.029,0.027,-0.006,-0.03,104.0,113.0,102.0,13.4,1505.3,327.1,-0.7,1.8,2470.409,13.32,0.027,102.5
2020-08-17T04:16:03,42.805,6.029,0.043,0.006,-0.019,105.0,114.0,101.0,13.3,1505.3,324.3,-0.7,1.8,2470.356,13.32,0.043,82.1
2020-08-17T04:19:03,42.805,6.029,0.042,-0.006,-0.017,104.0,112.0,102.0,13.4,1505.3,326.9,-0.7,1.8,2470.403,13.32,0.042,98.1
2020-08-17T04:22:03,42.805,6.029,0.027,0.027,-0.022,103.0,115.0,102.0,13.4,1505.3,328.5,-0.7,1.8,2470.445,13.32,0.038,45.0
2020-08-17T04:25:03,42.805,6.029,0.039,-0.006,-0.01,105.0,112.0,102.0,13.4,1505.3,325.0,-0.7,1.8,2470.394,13.32,0.039,98.7
2020-08-17T04:28:03,42.805,6.029,0.022,0.008,-0.016,104.0,114.0,102.0,13.4,1505.3,327.9,-0.7,1.8,2470.38,13.32,0.023,70.0
2020-08-17T04:31:03,42.805,6.029,0.031,0.007,-0.018,103.0,115.0,102.0,13.4,1505.3,323.1,-0.7,1.8,2470.381,13.32,0.031,77.3
2020-08-17T04:34:03,42.805,6.029,0.034,-0.006,-0.035,103.0,114.0,101.0,13.4,1505.3,324.0,-0.7,1.8,2470.457,13.32,0.034,100.0
2020-08-17T04:37:03,42.805,6.029,0.023,0.006,-0.021,104.0,113.0,102.0,13.3,1505.3,323.8,-0.7,1.8,2470.429,13.32,0.023,75.4
2020-08-17T04:40:03,42.805,6.029,0.014,-0.006,-0.009,105.0,117.0,101.0,13.4,1505.3,323.5,-0.7,1.8,2470.417,13.32,0.015,113.2
2020-08-17T04:43:03,42.805,6.029,0.017,-0.01,-0.017,105.0,113.0,102.0,13.4,1505.3,324.9,-0.7,1.8,2470.405,13.32,0.019,120.5
2020-08-17T04:46:03,42.805,6.029,0.029,0.001,-0.003,104.0,112.0,102.0,13.4,1505.3,328.1,-0.7,1.8,2470.423,13.32,0.029,88.0
2020-08-17T04:49:03,42.805,6.029,0.039,0.0,0.011,104.0,114.0,100.0,13.4,1505.3,325.6,-0.7,1.8,2470.437,13.32,0.039,90.0
2020-08-17T04:52:03,42.805,6.029,0.054,0.0,-0.038,105.0,114.0,102.0,13.4,1505.3,324.7,-0.7,1.8,2470.44,13.32,0.053,90.0
2020-08-17T04:55:03,42.805,6.029,0.031,0.011,-0.018,104.0,114.0,101.0,13.3,1505.3,325.0,-0.7,1.8,2470.454,13.32,0.032,70.5
2020-08-17T04:58:03,42.805,6.029,0.046,0.02,-0.008,105.0,114.0,103.0,13.4,1505.3,323.0,-0.7,1.8,2470.425,13.32,0.05,66.5
2020-08-17T05:04:03,42.805,6.029,0.016,0.029,0.004,104.0,116.0,101.0,13.4,1505.2,323.8,-0.7,1.8,2470.459,13.3,0.033,28.9
2020-08-17T05:07:03,42.805,6.029,0.021,0.015,-0.005,105.0,113.0,101.0,13.4,1505.3,326.8,-0.7,1.8,2470.458,13.31,0.025,54.5
2020-08-17T05:10:03,42.805,6.029,0.04,-0.003,-0.044,103.0,116.0,102.0,13.4,1505.3,326.3,-0.7,1.8,2470.436,13.31,0.04,94.3
2020-08-17T05:13:03,42.805,6.029,0.043,0.009,-0.035,104.0,117.0,100.0,13.4,1505.3,324.9,-0.7,1.8,2470.489,13.32,0.043,78.2
2020-08-17T05:16:03,42.805,6.029,0.024,0.002,-0.016,103.0,116.0,102.0,13.4,1505.3,325.2,-0.7,1.8,2470.437,13.32,0.024,85.2
2020-08-17T05:19:03,42.805,6.029,0.041,0.0,-0.018,104.0,115.0,101.0,13.3,1505.3,325.0,-0.7,1.8,2470.424,13.32,0.041,90.0
2020-08-17T05:22:03,42.805,6.029,0.039,-0.018,-0.02,104.0,115.0,102.0,13.4,1505.3,326.5,-0.7,1.8,2470.438,13.32,0.042,114.8
2020-08-17T05:25:03,42.805,6.029,0.024,0.013,-0.021,104.0,116.0,102.0,13.3,1505.3,326.4,-0.7,1.8,2470.454,13.32,0.027,61.6
2020-08-17T05:28:03,42.805,6.029,0.052,-0.002,-0.004,104.0,117.0,102.0,13.3,1505.3,325.3,-0.7,1.8,2470.41,13.32,0.052,92.2
2020-08-17T05:31:03,42.805,6.029,0.032,0.019,-0.035,104.0,113.0,101.0,13.3,1505.3,325.1,-0.7,1.8,2470.412,13.32,0.037,59.3
2020-08-17T05:34:03,42.805,6.029,0.032,-0.002,-0.016,104.0,116.0,102.0,13.4,1505.3,324.8,-0.7,1.8,2470.406,13.32,0.032,93.6
2020-08-17T05:37:03,42.805,6.029,0.017,0.005,-0.015,103.0,113.0,102.0,13.4,1505.3,328.1,-0.7,1.8,2470.424,13.32,0.017,73.6
2020-08-17T05:40:03,42.805,6.029,0.035,-0.002,-0.014,104.0,115.0,101.0,13.4,1505.3,328.5,-0.7,1.8,2470.455,13.32,0.035,93.3
2020-08-17T05:43:03,42.805,6.029,0.016,-0.01,-0.028,103.0,115.0,102.0,13.4,1505.3,326.5,-0.7,1.8,2470.402,13.32,0.018,122.0
2020-08-17T05:46:03,42.805,6.029,0.02,0.005,-0.014,104.0,116.0,101.0,13.4,1505.3,327.5,-0.7,1.8,2470.403,13.32,0.02,76.0
2020-08-17T05:49:03,42.805,6.029,0.029,0.021,-0.019,105.0,114.0,102.0,13.3,1505.3,327.0,-0.7,1.8,2470.444,13.32,0.035,54.1
2020-08-17T05:52:03,42.805,6.029,0.055,0.0,-0.004,105.0,118.0,102.0,13.3,1505.3,326.0,-0.7,1.8,2470.4,13.32,0.055,90.0
2020-08-17T05:55:03,42.805,6.029,0.018,-0.019,-0.039,105.0,114.0,101.0,13.3,1505.3,323.0,-0.7,1.8,2470.421,13.32,0.026,136.5
2020-08-17T05:58:03,42.805,6.029,0.032,-0.006,0.017,104.0,116.0,102.0,13.4,1505.3,327.5,-0.7,1.8,2470.447,13.32,0.032,100.6
2020-08-17T06:04:03,42.805,6.029,0.043,-0.019,-0.03,104.0,114.0,102.0,13.3,1505.2,328.2,-0.7,1.8,2470.449,13.3,0.047,113.8
2020-08-17T06:07:03,42.805,6.029,0.045,-0.004,-0.001,104.0,113.0,102.0,13.4,1505.3,326.1,-0.7,1.8,2470.43,13.31,0.045,95.1
2020-08-17T06:10:03,42.805,6.029,0.027,-0.008,-0.009,105.0,114.0,102.0,13.3,1505.3,327.8,-0.7,1.9,2470.459,13.31,0.028,106.5
2020-08-17T06:13:03,42.805,6.029,0.032,-0.008,-0.02,105.0,115.0,101.0,13.4,1505.3,326.9,-0.7,1.8,2470.434,13.32,0.032,104.0
2020-08-17T06:16:03,42.805,6.029,0.025,0.0,-0.004,104.0,113.0,102.0,13.3,1505.3,327.0,-0.7,1.8,2470.487,13.32,0.025,90.0
2020-08-17T06:19:03,42.805,6.029,0.03,0.003,-0.03,105.0,114.0,101.0,13.4,1505.3,326.4,-0.7,1.8,2470.401,13.32,0.03,84.3
2020-08-17T06:22:03,42.805,6.029,0.048,0.015,0.017,104.0,114.0,101.0,13.4,1505.3,326.4,-0.7,1.8,2470.457,13.32,0.05,72.6
2020-08-17T06:25:03,42.805,6.029,0.037,-0.016,-0.025,105.0,113.0,102.0,13.3,1505.3,325.7,-0.7,1.9,2470.439,13.32,0.04,113.4
2020-08-17T06:28:03,42.805,6.029,0.025,0.002,0.004,106.0,115.0,101.0,13.4,1505.3,328.1,-0.7,1.8,2470.483,13.32,0.025,85.4
2020-08-17T06:31:03,42.805,6.029,0.033,0.0,0.011,103.0,115.0,102.0,13.3,1505.3,326.9,-0.7,1.8,2470.426,13.32,0.033,90.0
2020-08-17T06:34:03,42.805,6.029,0.032,-0.016,-0.032,103.0,115.0,102.0,13.4,1505.3,327.9,-0.7,1.8,2470.45,13.32,0.035,116.6
2020-08-17T06:37:03,42.805,6.029,0.024,0.011,-0.02,104.0,113.0,102.0,13.3,1505.3,326.5,-0.7,1.8,2470.41,13.32,0.026,65.4
2020-08-17T06:40:03,42.805,6.029,0.04,-0.01,-0.006,105.0,116.0,100.0,13.4,1505.3,325.2,-0.7,1.8,2470.412,13.32,0.041,104.0
2020-08-17T06:43:03,42.805,6.029,0.022,-0.01,-0.037,104.0,114.0,101.0,13.3,1505.3,325.2,-0.7,1.8,2470.456,13.32,0.024,114.4
2020-08-17T06:46:03,42.805,6.029,0.039,0.013,-0.027,104.0,113.0,102.0,13.4,1505.3,323.1,-0.7,1.8,2470.439,13.32,0.041,71.6
2020-08-17T06:49:03,42.805,6.029,0.034,-0.016,0.0,103.0,116.0,102.0,13.4,1505.3,327.1,-0.7,1.8,2470.457,13.32,0.037,115.2
2020-08-17T06:55:03,42.805,6.029,0.033,-0.012,-0.01,104.0,113.0,102.0,13.3,1505.2,325.7,-0.7,1.8,2470.425,13.3,0.035,110.0
2020-08-17T06:58:03,42.805,6.029,0.006,0.005,-0.029,105.0,114.0,102.0,13.4,1505.3,326.6,-0.7,1.8,2470.409,13.31,0.007,50.2
2020-08-17T07:04:02,42.805,6.029,0.056,0.0,0.001,104.0,114.0,101.0,13.4,1505.2,327.6,-0.8,1.8,2470.477,13.3,0.056,90.0
2020-08-17T07:07:03,42.805,6.029,0.032,0.011,-0.005,105.0,112.0,101.0,13.4,1505.3,323.4,-0.7,1.8,2470.425,13.31,0.033,71.0
2020-08-17T07:10:03,42.805,6.029,0.039,0.005,-0.015,104.0,115.0,102.0,13.3,1505.3,326.3,-0.7,1.8,2470.479,13.31,0.039,82.7
2020-08-17T07:13:03,42.805,6.029,0.023,0.004,-0.008,104.0,113.0,102.0,13.4,1505.3,326.5,-0.7,1.9,2470.451,13.32,0.023,80.1
2020-08-17T07:19:03,42.805,6.029,0.048,-0.02,-0.003,103.0,114.0,102.0,13.3,1505.2,325.6,-0.7,1.8,2470.47,13.3,0.052,112.6
2020-08-17T07:22:03,42.805,6.029,0.023,-0.019,-0.008,103.0,114.0,102.0,13.4,1505.3,324.8,-0.7,1.8,2470.474,13.31,0.029,129.6
2020-08-17T07:25:03,42.805,6.029,0.046,-0.028,-0.034,104.0,112.0,102.0,13.4,1505.3,324.7,-0.7,1.8,2470.461,13.31,0.053,121.3
2020-08-17T07:28:03,42.805,6.029,0.031,-0.012,-0.003,104.0,113.0,101.0,13.4,1505.3,325.8,-0.7,1.8,2470.43,13.32,0.033,111.2
2020-08-17T07:31:03,42.805,6.029,0.035,0.003,-0.032,104.0,109.0,102.0,13.4,1505.3,326.7,-0.7,1.8,2470.477,13.32,0.035,85.1
2020-08-17T07:34:03,42.805,6.029,0.033,-0.005,-0.049,103.0,112.0,102.0,13.4,1505.3,326.5,-0.7,1.8,2470.41,13.32,0.033,98.6
2020-08-17T07:37:03,42.805,6.029,0.044,0.006,-0.023,103.0,112.0,102.0,13.3,1505.3,326.0,-0.7,1.8,2470.415,13.32,0.044,82.2
2020-08-17T07:40:03,42.805,6.029,0.03,0.019,-0.01,105.0,112.0,102.0,13.4,1505.3,323.1,-0.7,1.8,2470.449,13.32,0.035,57.7
2020-08-17T07:43:03,42.805,6.029,0.062,-0.013,-0.03,103.0,110.0,102.0,13.4,1505.3,326.4,-0.7,1.8,2470.429,13.32,0.063,101.8
2020-08-17T07:46:03,42.805,6.029,0.039,-0.007,0.009,105.0,111.0,103.0,13.3,1505.3,325.4,-0.7,1.8,2470.451,13.32,0.039,100.2
2020-08-17T07:49:03,42.805,6.029,0.021,0.001,-0.01,104.0,113.0,101.0,13.4,1505.3,325.6,-0.7,1.8,2470.403,13.32,0.021,87.3
2020-08-17T07:52:03,42.805,6.029,0.049,0.006,0.005,104.0,111.0,102.0,13.4,1505.3,323.4,-0.7,1.9,2470.399,13.32,0.049,83.0
2020-08-17T07:55:03,42.805,6.029,0.029,0.004,-0.02,104.0,113.0,102.0,13.3,1505.3,325.0,-0.7,1.8,2470.378,13.32,0.029,82.2
2020-08-17T07:58:03,42.805,6.029,0.052,-0.012,-0.003,104.0,112.0,102.0,13.4,1505.3,323.4,-0.7,1.9,2470.395,13.32,0.053,103.0
2020-08-17T08:04:03,42.805,6.029,0.032,-0.016,-0.012,104.0,111.0,102.0,13.4,1505.2,327.6,-0.8,1.8,2470.433,13.3,0.035,116.6
2020-08-17T08:07:03,42.805,6.029,0.042,-0.027,0.004,104.0,112.0,100.0,13.3,1505.3,323.2,-0.7,1.9,2470.416,13.31,0.049,122.7
2020-08-17T08:10:03,42.805,6.029,0.033,-0.017,0.009,104.0,111.0,102.0,13.3,1505.3,326.5,-0.7,1.8,2470.408,13.31,0.037,117.3
2020-08-17T08:13:03,42.805,6.029,0.013,-0.001,0.002,104.0,111.0,101.0,13.4,1505.3,324.8,-0.7,1.8,2470.392,13.32,0.013,94.4
2020-08-17T08:16:03,42.805,6.029,0.043,-0.014,-0.009,105.0,111.0,101.0,13.4,1505.3,326.6,-0.7,1.8,2470.398,13.32,0.045,108.0
2020-08-17T08:19:03,42.805,6.029,0.049,-0.012,-0.037,104.0,112.0,101.0,13.4,1505.3,323.4,-0.7,1.8,2470.412,13.32,0.05,103.8
2020-08-17T08:22:03,42.805,6.029,0.063,-0.028,-0.003,104.0,110.0,102.0,13.4,1505.3,324.7,-0.7,1.9,2470.365,13.32,0.068,114.0
2020-08-17T08:25:03,42.805,6.029,0.052,-0.014,0.009,104.0,111.0,102.0,13.4,1505.3,327.8,-0.7,1.8,2470.384,13.32,0.053,105.1
2020-08-17T08:28:03,42.805,6.029,0.039,0.003,-0.004,105.0,109.0,102.0,13.4,1505.3,324.7,-0.7,1.8,2470.384,13.32,0.039,85.6
2020-08-17T08:31:03,42.805,6.029,0.03,-0.002,-0.004,104.0,111.0,103.0,13.4,1505.3,325.6,-0.7,1.8,2470.374,13.32,0.03,93.8
2020-08-17T08:34:03,42.805,6.029,0.043,-0.011,-0.01,104.0,113.0,102.0,13.4,1505.3,324.1,-0.7,1.8,2470.339,13.32,0.044,104.3
2020-08-17T08:37:03,42.805,6.029,0.039,-0.008,-0.002,105.0,111.0,102.0,13.4,1505.3,326.4,-0.7,1.8,2470.374,13.32,0.039,101.6
2020-08-17T08:40:03,42.805,6.029,0.058,0.011,0.006,104.0,112.0,103.0,13.4,1505.3,322.9,-0.7,1.8,2470.392,13.32,0.059,79.3
2020-08-17T08:43:03,42.805,6.029,0.068,-0.006,0.002,104.0,110.0,102.0,13.4,1505.3,328.2,-0.7,1.9,2470.348,13.32,0.068,95.0
2020-08-17T08:46:03,42.805,6.029,0.013,0.0,-0.02,105.0,114.0,101.0,13.4,1505.3,324.6,-0.7,1.9,2470.383,13.32,0.013,90.0
2020-08-17T08:49:03,42.805,6.029,0.033,-0.009,-0.011,104.0,112.0,101.0,13.3,1505.3,328.0,-0.7,1.8,2470.395,13.32,0.034,105.3
2020-08-17T08:52:03,42.805,6.029,0.068,-0.011,0.028,104.0,109.0,102.0,13.4,1505.3,323.7,-0.7,1.8,2470.346,13.32,0.068,99.2
2020-08-17T08:55:03,42.805,6.029,0.051,-0.034,0.041,103.0,109.0,101.0,13.4,1505.3,326.5,-0.7,1.8,2470.333,13.32,0.061,123.7
2020-08-17T08:58:03,42.805,6.029,0.029,-0.018,-0.007,103.0,109.0,102.0,13.3,1505.3,325.2,-0.7,1.8,2470.352,13.32,0.034,121.8
2020-08-17T09:04:03,42.805,6.029,0.057,-0.013,-0.007,105.0,113.0,101.0,13.3,1505.2,323.0,-0.7,1.8,2470.374,13.3,0.058,102.8
2020-08-17T09:07:03,42.805,6.029,0.049,-0.018,0.001,104.0,110.0,101.0,13.4,1505.3,325.4,-0.7,1.8,2470.349,13.31,0.052,110.2
2020-08-17T09:10:03,42.805,6.029,0.063,-0.026,0.012,105.0,109.0,101.0,13.3,1505.3,325.2,-0.7,1.8,2470.328,13.31,0.068,112.4
2020-08-17T09:13:03,42.805,6.029,0.026,-0.021,0.0,103.0,111.0,101.0,13.4,1505.3,327.7,-0.7,1.8,2470.356,13.32,0.033,128.9
2020-08-17T09:16:03,42.805,6.029,0.027,-0.024,0.018,104.0,109.0,101.0,13.4,1505.3,325.8,-0.7,1.8,2470.375,13.32,0.036,131.6
2020-08-17T09:19:03,42.805,6.029,0.051,-0.025,-0.013,104.0,110.0,101.0,13.3,1505.3,324.3,-0.7,1.8,2470.344,13.32,0.056,116.1
2020-08-17T09:22:03,42.805,6.029,0.049,0.001,-0.003,105.0,112.0,102.0,13.4,1505.3,323.0,-0.7,1.8,2470.361,13.32,0.049,88.8
2020-08-17T09:25:03,42.805,6.029,0.06,-0.021,0.014,104.0,110.0,102.0,13.3,1505.3,323.6,-0.8,1.8,2470.326,13.32,0.063,109.3
2020-08-17T09:28:03,42.805,6.029,0.037,-0.016,0.0,105.0,108.0,102.0,13.3,1505.3,327.7,-0.7,1.8,2470.357,13.32,0.04,113.4
2020-08-17T09:31:03,42.805,6.029,0.045,-0.007,-0.006,103.0,108.0,102.0,13.4,1505.3,324.9,-0.7,1.8,2470.33,13.32,0.045,98.8
2020-08-17T09:34:03,42.805,6.029,0.048,-0.039,-0.036,104.0,107.0,102.0,13.4,1505.3,326.0,-0.7,1.8,2470.323,13.32,0.061,129.1
2020-08-17T09:37:03,42.805,6.029,0.056,-0.034,0.0,104.0,110.0,101.0,13.4,1505.3,324.8,-0.7,1.8,2470.335,13.32,0.065,121.3
2020-08-17T09:40:03,42.805,6.029,0.042,-0.026,0.004,104.0,111.0,101.0,13.3,1505.3,324.3,-0.7,1.8,2470.315,13.32,0.049,121.8
2020-08-17T09:43:03,42.805,6.029,0.054,-0.013,0.027,104.0,113.0,102.0,13.3,1505.3,326.3,-0.7,1.8,2470.351,13.32,0.055,103.5
2020-08-17T09:46:03,42.805,6.029,0.041,-0.004,0.011,104.0,109.0,102.0,13.4,1505.3,322.7,-0.7,1.9,2470.316,13.32,0.041,95.6
2020-08-17T09:49:03,42.805,6.029,0.057,-0.011,0.032,104.0,110.0,102.0,13.4,1505.3,328.1,-0.7,1.8,2470.344,13.32,0.058,100.9
2020-08-17T09:52:03,42.805,6.029,0.046,-0.011,-0.017,105.0,111.0,101.0,13.4,1505.3,326.0,-0.7,1.8,2470.301,13.32,0.047,103.4
2020-08-17T09:55:03,42.805,6.029,0.032,-0.015,0.015,103.0,109.0,101.0,13.4,1505.3,326.0,-0.7,1.9,2470.339,13.32,0.035,115.1
2020-08-17T09:58:03,42.805,6.029,0.05,-0.031,0.011,103.0,111.0,101.0,13.4,1505.3,323.1,-0.7,1.8,2470.3,13.32,0.058,121.8
2020-08-17T10:04:03,42.805,6.029,0.035,0.011,0.022,104.0,110.0,102.0,13.3,1505.2,322.9,-0.7,1.8,2470.375,13.3,0.036,72.6
2020-08-17T10:07:03,42.805,6.029,0.061,0.007,0.01,104.0,110.0,102.0,13.4,1505.3,323.8,-0.7,1.8,2470.367,13.31,0.061,83.5
2020-08-17T10:10:03,42.805,6.029,0.037,-0.023,-0.01,105.0,110.0,102.0,13.4,1505.3,323.6,-0.7,1.8,2470.305,13.31,0.043,121.9
2020-08-17T10:16:03,42.805,6.029,0.028,-0.014,0.0,104.0,112.0,102.0,13.4,1505.2,328.0,-0.7,1.8,2470.346,13.3,0.031,116.6